Weather in Alekseyevskoye

Russia / Mari El Republic     56°43′11″N   49°44′02″E
temp.,
°C
wind,
m/s
gust,
m/s
humid.,
%
clouds,
%
prec.,
mm/h
press.,
hPa
HPBL,
m
3 march, wed
wed300:00−4w499491 0.0 998269
03:00−8wsw349784 0.1 99973
06:00−5wsw3897100 0.2 998258
09:00−4wnw5994100 0.7 1000520
12:00−4nw71090100 0.6 1000696
15:00−5nw71086100 0.7 1001767
18:00−6wnw51191100 0.1 1002677
21:00−8w41193100 0.1 1003355
4 march, thu
thu400:00−7wsw4991100 0.1 1001386
03:00−7sw51194100 0.6 1000451
06:00−5wsw41095100 0.3 997397
09:00−4sw51093100 0.4 995648
12:00−2sw71194100 0.4 992925
15:00−1wsw71190100 1.5 991997
18:00−4w6148874 0.6 992670
21:00−6w6139174 0.6 995418
5 march, fri
fri500:00−8wnw4995100 0.1 997211
03:00−12wnw349792 0.1 99952
06:00−14nw239785 0.0 100125
09:00−13nnw349565 0.0 1002174
12:00−10nw348988 0.0 1002327
15:00−11nw468981 0.0 1004422
18:00−16wnw359527 0.0 100779
21:00−16wnw349745 0.0 101068
6 march, sat
sat600:00−18wnw339650 0.0 101129
03:00−18wsw339737 0.0 101231
06:00−18sw349978 0.0 101252
09:00−13sw469577 0.0 1011251
12:00−9wsw4791100 0.1 1011541
15:00−8wnw4691100 0.3 1010555
18:00−14nw3694100 0.2 1010122
21:00−19wnw239652 0.2 101121
7 march, sun
sun700:00−20wsw23960 0.0 101020
03:00−19sw359935 0.0 101189
06:00−20sw4610080 0.0 101090
09:00−15sw479582 0.0 1010263
12:00−10ssw6108694 0.0 1008567
15:00−10s7128897 0.0 1005642
18:00−11s71591100 0.1 1003733
21:00−9s81593100 0.6 999899